Tracking 25703 objects as of 3-Jul-2022
HD Live streaming from Space Station
objects crossing your sky now

STARLINK-1805

Track STARLINK-1805 now!
10-day predictions
STARLINK-1805 is classified as:


NORAD ID: 46705
Int'l Code: 2020-073AM
Perigee: 553.1 km
Apogee: 555.6 km
Inclination: 53.1 °
Period: 95.6 minutes
Semi major axis: 6925 km
RCS: Unknown
Launch date: October 18, 2020
Source: United States (US)
Launch site: AIR FORCE EASTERN TEST RANGE (AFETR)
aabbcc
Your satellite tracking list
Your tracking list is empty




NASA's NSSDC Master Catalog

Two Line Element Set (TLE):
1 46705U 20073AM  22183.42024236  .00000519  00000-0  53785-4 0  9990
2 46705  53.0540 180.2467 0001776  60.0380 300.0785 15.06392588 94000
Source of the keplerian elements: AFSPC